STARLINK-32469, 61721

Orbit data source: Space-Track

STARLINK-32469, 61721 is a payload satellite owned by SpaceX/Seattle (US) in LEO that was launched on Wed, 30 Oct 2024 UTC via an FALCON 9 launch vehicle from the Air Force Eastern Test Range (AFETR). Payload-class satellites include a variety of spacecraft equipped with specific instruments for various scientific and technological missions. These include communications satellites like Starlink; space stations such as the ISS; scientific satellites like the Hubble; Earth observation satellites from companies like Planet Labs, Umbra, and HawkEye 360; GPS; miniature CubeSats for education and research; and military/defense satellites.

Loading next visibility...
Identifier
61721, 2024-196Q
Orbit
LEO
Last TLE update
1 day ago
Origin
Manufacturer
SpaceX/Seattle
Mission
Operational Commercial Communications
Bus & Motor
STARLINK V2M, Unknown motor
Mass
730 kg wet, ~700 kg dry
Launch date (UTC)
2024-10-30 (9 months ago)
Launch vehicle
FALCON 9
Launch site
Air Force Eastern Test Range (AFETR)
Object type
Payload
Rocket body
Debris
Shape & HBR
Box + 2 Pan, 14.5 m
Radar Cross Section
36.964 m², Large (>1 m²)

Expand to show TLE details & history

TLE from 1 day ago
0 STARLINK-32469
1 61721U 24196Q   25200.15040163  .00000807  00000-0  39391-4 0  9992
2 61721  53.1596 105.8929 0001124  80.0354 280.0773 15.30193393 41403
Epoch: 2025-07-19T03:36Z
TLE epoch observation values (Epoch: 2025-07-19T03:36:34.7Z)
Latitude
-0.00009°
Longitude
114.55661°
Altitude
476 km
Speed
7.629 km/s
True Right ascension
07h 03m 34s
True Declination
0° 00' 00"
Sunlit
Object was in daylight at epoch
Visualization orbit readout
Latitude
10.20945°
Longitude
116.4914°
Altitude
475.125 km
Speed
7.63 km/s
Apparent Right ascension
08h 29m 51s
Apparent Declination
-14° 59' 17"
Sunlit
Object is in daylight
Visualization observer readout
Local Sidereal Time
22:20:06
Azimuth
51.848° ENE
Elevation
-55.361°
Doppler factor
1
Orbital elements
Apogee altitude
476.262 km
Perigee altitude
474.721 km
Semi-major axis
6,853.628 km
Eccentricity
0.00011
Inclination
53.1596°
RAAN
105.8929°
Arg. of periapsis
80.0354°
True anomaly
280.06462°
Mean anomaly
280.0773°
Eccentric anomaly
280.07096°
Mean motion
3.82527 °/min
Orbital period
94.11 mins
BSTAR
0.000039391
Loading maneuver chart data...
Loading SW <> Apogee altitude chart data...
Loading historical data...
Loading historical data...
Loading historical data...
Loading historical data...
Loading historical data...
Loading historical data...
Loading historical data...
|